USA 159 (DSP 21)

Last updated on Tue Mar 03 2026 00:02:49 GMT+0000 (Coordinated Universal Time)

1 26880U 01033A 26061.45970787 -.00000308 00000+0 00000+0 0 9993 2 26880 12.6874 17.1829 0002281 242.9429 16.5978 1.00279769 31895
UTC large
Height (km)
Speed (km/s)
/
Latitude / Longitude
Inclination (degrees)
Orbital Period (minutes)
Azimuth
Elevation
Range (km)
Doppler Factor

Next 0 passes for location: London (51.5072 / 0.1276)

Sorry there are no passes over London.